Location: Sungai Buloh
(3.1000°N, 113.0000°E)
Time: 15:30:57
(UTC+00:00)

Cosmos 1869 Rocket - Pass Details

Date: 12 January 2026
Orbit: 597 x 626 km, 82.5° (Epoch: 11 February)

Event Time Altitude Azimuth Distance (km) Brightness Sun altitude
Exits shadow 12:00:41 13° 355° (N) 1,748 5.7 -20.7°
Maximum altitude 12:04:29 85° 270° (W) 609 3.4 -21.6°
Drops below altitude 10° 12:08:47 10° 178° (S) 1,941 6.3 -22.6°
Sets 12:10:59 0° 177° (S) 2,842 7.2 -23.1°
